This demonstration page uses our WeatherBlox Daily Observations layout. Learn more.

Left ArrowRight Arrow

Hourly Observations for January 27, 2015

Temp ( °F °C ) Dew Point ( °F °C ) Humidity (%) Winds ( mph kmh ) Pressure ( in mb ) Visibility ( mi km ) Precip ( " mm )
12:15 am 00:15 Mostly Cloudy 27 -3 16 -9 64 64 ESE 6 9 29.97 1015 7 11.26538 N/A
12:36 am 00:36 Cloudy 27 -3 16 -9 64 64 ESE 7 11 29.97 1015 7 11.26538 N/A
12:55 am 00:55 Cloudy 27 -3 16 -9 64 64 ESE 7 11 29.97 1015 7 11.26538 N/A
1:15 am 01:15 Cloudy 25 -4 16 -9 69 69 ESE 5 7 29.97 1015 7 11.26538 N/A
1:36 am 01:36 Cloudy 25 -4 16 -9 69 69 ESE 5 7 29.97 1015 7 11.26538 N/A
1:55 am 01:55 Cloudy 25 -4 16 -9 69 69 ESE 5 7 29.97 1015 7 11.26538 N/A
2:15 am 02:15 Cloudy 25 -4 16 -9 69 69 ESE 3 6 29.97 1015 10 16.0934 N/A
2:36 am 02:36 Cloudy 25 -4 16 -9 69 69 ESE 3 6 29.97 1015 10 16.0934 N/A
2:55 am 02:55 Cloudy 25 -4 16 -9 69 69 ESE 5 7 29.97 1015 10 16.0934 N/A
3:15 am 03:15 Cloudy 25 -4 16 -9 69 69 ESE 3 6 29.97 1015 10 16.0934 N/A
3:36 am 03:36 Cloudy 25 -4 16 -9 69 69 ENE 3 6 29.97 1015 10 16.0934 N/A
3:55 am 03:55 Cloudy 25 -4 16 -9 69 69 E 3 6 29.97 1015 10 16.0934 N/A
4:15 am 04:15 Cloudy 25 -4 16 -9 69 69 E 3 6 29.97 1015 10 16.0934 N/A
4:36 am 04:36 Cloudy 25 -4 16 -9 69 69 ENE 3 6 29.97 1015 10 16.0934 N/A
4:55 am 04:55 Cloudy 25 -4 16 -9 69 69 E 6 9 30 1016 10 16.0934 N/A
5:15 am 05:15 Cloudy 25 -4 16 -9 69 69 ENE 6 9 30 1016 10 16.0934 N/A
5:36 am 05:36 Cloudy 25 -4 16 -9 69 69 ENE 5 7 30 1016 10 16.0934 N/A
5:55 am 05:55 Cloudy 25 -4 16 -9 69 69 ENE 5 7 30 1016 10 16.0934 N/A
6:15 am 06:15 Cloudy 25 -4 16 -9 69 69 ENE 5 7 30.03 1017 10 16.0934 N/A
6:35 am 06:35 Mostly Cloudy 25 -4 16 -9 69 69 NE 5 7 30.03 1017 10 16.0934 N/A
6:55 am 06:55 Mostly Cloudy 25 -4 16 -9 69 69 NE 5 7 30.03 1017 10 16.0934 N/A
7:15 am 07:15 Cloudy 23 -5 16 -9 74 74 NE 5 7 30.06 1018 10 16.0934 N/A
7:35 am 07:35 Cloudy 23 -5 16 -9 74 74 NE 3 6 30.06 1018 10 16.0934 N/A
7:55 am 07:55 Mostly Cloudy 25 -4 16 -9 69 69 NE 3 6 30.06 1018 10 16.0934 N/A
8:16 am 08:16 Mostly Cloudy 25 -4 16 -9 69 69 NE 5 7 30.09 1019 10 16.0934 N/A
8:35 am 08:35 Cloudy 25 -4 14 -10 63 63 ENE 7 11 30.09 1019 10 16.0934 N/A
8:55 am 08:55 Cloudy 25 -4 14 -10 63 63 NE 9 15 30.09 1019 10 16.0934 N/A
9:16 am 09:16 Cloudy 25 -4 14 -10 63 63 NE 8 13 30.12 1020 10 16.0934 N/A
9:35 am 09:35 Cloudy 25 -4 12 -11 59 59 ENE 7 11 30.12 1020 10 16.0934 N/A
9:55 am 09:55 Cloudy 25 -4 9 -13 50 50 E 8 13 30.12 1020 10 16.0934 N/A
10:16 am 10:16 Cloudy 23 -5 9 -13 54 54 E 6 9 30.18 1022 10 16.0934 N/A
10:35 am 10:35 Mostly Cloudy 25 -4 7 -14 46 46 ENE 6 9 30.15 1021 10 16.0934 N/A
10:55 am 10:55 Partly Cloudy 25 -4 7 -14 46 46 E 7 11 30.15 1021 10 16.0934 N/A
11:15 am 11:15 Mostly Cloudy 27 -3 5 -15 39 39 ENE 5 7 30.15 1021 10 16.0934 N/A
11:35 am 11:35 Mostly Cloudy 27 -3 5 -15 39 39 NE 6 9 30.15 1021 10 16.0934 N/A
11:55 am 11:55 Mostly Cloudy 28 -2 5 -15 37 37 ENE 6 9 30.15 1021 10 16.0934 N/A
12:15 pm 12:15 Partly Cloudy 27 -3 5 -15 39 39 E 8 13 30.18 1022 10 16.0934 N/A
12:35 pm 12:35 Sunny 28 -2 7 -14 40 40 NE 5 7 30.18 1022 10 16.0934 N/A
12:55 pm 12:55 Partly Cloudy 30 -1 3 -16 31 31 NE 7 11 30.18 1022 10 16.0934 N/A
1:15 pm 13:15 Partly Cloudy 28 -2 1 -17 31 31 NNE 3 6 30.18 1022 10 16.0934 N/A
1:35 pm 13:35 Partly Cloudy 28 -2 3 -16 34 34 NNE 6 9 30.18 1022 10 16.0934 N/A
1:55 pm 13:55 Sunny 28 -2 1 -17 31 31 ENE 6 9 30.18 1022 10 16.0934 N/A
2:16 pm 14:16 Partly Cloudy 28 -2 1 -17 31 31 NNE 8 13 30.18 1022 10 16.0934 N/A
2:35 pm 14:35 Partly Cloudy 28 -2 0 -18 29 29 N 6 9 30.18 1022 10 16.0934 N/A
2:55 pm 14:55 Partly Cloudy 30 -1 1 -17 29 29 N 8 13 30.18 1022 10 16.0934 N/A
3:15 pm 15:15 Partly Cloudy 30 -1 3 -16 31 31 NE 6 9 30.18 1022 10 16.0934 N/A
3:35 pm 15:35 Sunny 30 -1 0 -18 26 26 N 7 11 30.21 1023 10 16.0934 N/A
3:55 pm 15:55 Sunny 30 -1 1 -17 29 29 NNE 8 13 30.21 1023 10 16.0934 N/A
4:15 pm 16:15 Sunny 30 -1 5 -15 34 34 N 7 11 30.21 1023 10 16.0934 N/A
4:35 pm 16:35 Sunny 30 -1 5 -15 34 34 N 7 11 30.21 1023 10 16.0934 N/A
4:56 pm 16:56 Sunny 30 -1 5 -15 34 34 N 9 15 30.21 1023 10 16.0934 N/A
5:15 pm 17:15 Sunny 28 -2 5 -15 37 37 N 8 13 30.24 1024 10 16.0934 N/A
5:35 pm 17:35 Sunny 28 -2 9 -13 43 43 N 7 11 30.24 1024 10 16.0934 N/A
5:56 pm 17:56 Sunny 27 -3 9 -13 46 46 N 8 13 30.24 1024 10 16.0934 N/A
6:15 pm 18:15 Clear 25 -4 9 -13 50 50 N 7 11 30.27 1025 10 16.0934 N/A
6:35 pm 18:35 Clear 25 -4 10 -12 54 54 N 7 11 30.27 1025 10 16.0934 N/A
6:56 pm 18:56 Clear 25 -4 10 -12 54 54 N 7 11 30.27 1025 10 16.0934 N/A
7:15 pm 19:15 Clear 23 -5 10 -12 58 58 N 7 11 30.27 1025 10 16.0934 N/A
7:35 pm 19:35 Clear 23 -5 10 -12 58 58 N 5 7 30.27 1025 10 16.0934 N/A
7:56 pm 19:56 Clear 21 -6 12 -11 68 68 N 3 6 30.3 1026 10 16.0934 N/A
8:15 pm 20:15 Clear 23 -5 12 -11 63 63 Calm 30.3 1026 10 16.0934 N/A
8:35 pm 20:35 Clear 21 -6 12 -11 68 68 Calm 30.3 1026 10 16.0934 N/A
8:55 pm 20:55 Clear 21 -6 12 -11 68 68 Calm 30.3 1026 10 16.0934 N/A
9:15 pm 21:15 Clear 23 -5 10 -12 58 58 Calm 30.3 1026 10 16.0934 N/A
9:35 pm 21:35 Clear 21 -6 12 -11 68 68 Calm 30.3 1026 10 16.0934 N/A
9:55 pm 21:55 Clear 21 -6 9 -13 58 58 Calm 30.3 1026 10 16.0934 N/A
10:15 pm 22:15 Clear 21 -6 14 -10 74 74 Calm 30.3 1026 10 16.0934 N/A
10:36 pm 22:36 Clear 19 -7 19 -7 100 100 Calm 30.3 1026 10 16.0934 N/A
10:55 pm 22:55 Clear 19 -7 19 -7 100 100 Calm 30.3 1026 10 16.0934 N/A
11:15 pm 23:15 Clear 19 -7 14 -10 79 79 Calm 30.3 1026 10 16.0934 N/A
11:36 pm 23:36 Clear 19 -7 14 -10 79 79 Calm 30.3 1026 10 16.0934 N/A
11:55 pm 23:55 Clear 19 -7 16 -9 86 86 Calm 30.3 1026 10 16.0934 N/A

Powered by AerisWeather